TimeEST,TemperatureF,Dew PointF,Humidity,Sea Level PressureIn,VisibilityMPH,Wind Direction,Wind SpeedMPH,Gust SpeedMPH,PrecipitationIn,Events,Conditions,WindDirDegrees,DateUTC
12:15 AM,32.5,30.6,92,30.09,10.0,Calm,Calm,-,N/A,,Clear,0,2013-01-21 05:15:00
12:35 AM,32.2,30.4,93,30.09,10.0,Calm,Calm,-,N/A,,Clear,0,2013-01-21 05:35:00
12:55 AM,31.6,29.3,91,30.08,10.0,Calm,Calm,-,N/A,,Clear,0,2013-01-21 05:55:00
1:15 AM,30.4,28.2,92,30.08,10.0,Calm,Calm,-,N/A,,Clear,0,2013-01-21 06:15:00
1:35 AM,30.9,28.9,92,30.07,10.0,Calm,Calm,-,N/A,,Clear,0,2013-01-21 06:35:00
1:55 AM,30.6,28.8,93,30.08,10.0,Calm,Calm,-,N/A,,Clear,0,2013-01-21 06:55:00
2:15 AM,29.8,28.2,94,30.08,10.0,Calm,Calm,-,N/A,,Clear,0,2013-01-21 07:15:00
2:35 AM,29.7,28.0,94,30.08,10.0,Calm,Calm,-,N/A,,Clear,0,2013-01-21 07:35:00
2:55 AM,28.9,27.3,94,30.07,10.0,Calm,Calm,-,N/A,,Clear,0,2013-01-21 07:55:00
3:15 AM,28.9,27.3,94,30.07,10.0,Calm,Calm,-,N/A,,Clear,0,2013-01-21 08:15:00
3:35 AM,28.8,27.3,94,30.07,10.0,Calm,Calm,-,N/A,,Clear,0,2013-01-21 08:35:00
3:55 AM,28.4,27.1,95,30.07,10.0,Calm,Calm,-,N/A,,Clear,0,2013-01-21 08:55:00
4:15 AM,28.0,26.6,94,30.07,10.0,Calm,Calm,-,N/A,,Clear,0,2013-01-21 09:15:00
4:35 AM,28.4,27.1,95,30.07,10.0,Calm,Calm,-,N/A,,Clear,0,2013-01-21 09:35:00
4:55 AM,28.0,26.6,94,30.07,10.0,Calm,Calm,-,N/A,,Clear,0,2013-01-21 09:55:00
5:15 AM,27.3,25.9,94,30.07,10.0,Calm,Calm,-,N/A,,Clear,0,2013-01-21 10:15:00
5:35 AM,27.7,26.6,96,30.07,10.0,Calm,Calm,-,N/A,,Clear,0,2013-01-21 10:35:00
5:55 AM,27.5,26.2,95,30.07,10.0,Calm,Calm,-,N/A,,Clear,0,2013-01-21 10:55:00
6:15 AM,27.3,26.1,95,30.07,10.0,Calm,Calm,-,N/A,,Clear,0,2013-01-21 11:15:00
6:35 AM,26.8,25.5,95,30.06,10.0,Calm,Calm,-,N/A,,Clear,0,2013-01-21 11:35:00
6:55 AM,27.3,26.1,95,30.06,10.0,Calm,Calm,-,N/A,,Clear,0,2013-01-21 11:55:00
7:15 AM,26.6,25.5,96,30.06,10.0,Calm,Calm,-,N/A,,Clear,0,2013-01-21 12:15:00
7:35 AM,26.1,24.8,95,30.06,10.0,Calm,Calm,-,N/A,,Clear,0,2013-01-21 12:35:00
8:15 AM,27.7,26.4,95,30.08,10.0,Calm,Calm,-,N/A,,Clear,0,2013-01-21 13:15:00
8:35 AM,29.7,28.4,95,30.08,10.0,Calm,Calm,-,N/A,,Clear,0,2013-01-21 13:35:00
8:55 AM,32.0,30.7,95,30.08,10.0,Calm,Calm,-,N/A,,Clear,0,2013-01-21 13:55:00
9:15 AM,35.4,32.7,90,30.09,10.0,Calm,Calm,-,N/A,,Clear,0,2013-01-21 14:15:00
9:35 AM,38.7,33.6,82,30.09,10.0,Calm,Calm,-,N/A,,Clear,0,2013-01-21 14:35:00
9:55 AM,41.7,33.6,73,30.08,10.0,Calm,Calm,-,N/A,,Clear,0,2013-01-21 14:55:00
10:15 AM,43.9,33.4,67,30.08,10.0,Calm,Calm,-,N/A,,Clear,0,2013-01-21 15:15:00
10:35 AM,47.3,32.4,56,30.06,10.0,SE,4.6,-,N/A,,Clear,130,2013-01-21 15:35:00
10:55 AM,50.2,31.3,48,30.06,10.0,Calm,Calm,-,N/A,,Clear,0,2013-01-21 15:55:00
11:15 AM,52.5,26.6,37,30.05,10.0,South,5.8,-,N/A,,Clear,170,2013-01-21 16:15:00
11:35 AM,53.6,26.6,35,30.04,10.0,SSE,4.6,-,N/A,,Clear,160,2013-01-21 16:35:00
11:55 AM,55.0,27.0,34,30.02,10.0,SSE,4.6,-,N/A,,Clear,160,2013-01-21 16:55:00
12:15 PM,56.5,27.9,33,30.00,10.0,South,5.8,-,N/A,,Clear,170,2013-01-21 17:15:00
12:35 PM,56.5,26.8,32,29.99,10.0,South,5.8,-,N/A,,Clear,170,2013-01-21 17:35:00
12:55 PM,56.7,26.2,31,29.97,10.0,South,9.2,-,N/A,,Clear,170,2013-01-21 17:55:00
1:15 PM,57.7,27.0,31,29.96,10.0,SW,4.6,-,N/A,,Clear,220,2013-01-21 18:15:00
1:35 PM,58.1,25.7,29,29.95,10.0,SSW,6.9,-,N/A,,Clear,200,2013-01-21 18:35:00
1:55 PM,59.5,27.1,29,29.93,10.0,South,5.8,-,N/A,,Clear,170,2013-01-21 18:55:00
2:15 PM,59.9,28.8,31,29.93,10.0,SSW,9.2,-,N/A,,Clear,210,2013-01-21 19:15:00
2:35 PM,59.9,28.2,30,29.91,10.0,SW,9.2,-,N/A,,Clear,220,2013-01-21 19:35:00
2:55 PM,60.4,28.0,29,29.91,10.0,SW,6.9,-,N/A,,Clear,220,2013-01-21 19:55:00
3:15 PM,61.0,28.9,30,29.90,10.0,SSW,10.4,-,N/A,,Clear,210,2013-01-21 20:15:00
3:35 PM,61.2,28.8,29,29.90,10.0,WSW,9.2,-,N/A,,Clear,240,2013-01-21 20:35:00
3:55 PM,60.4,28.2,29,29.90,10.0,WSW,9.2,-,N/A,,Clear,240,2013-01-21 20:55:00
4:15 PM,60.4,28.6,30,29.89,10.0,SW,9.2,-,N/A,,Clear,230,2013-01-21 21:15:00
4:35 PM,59.7,27.3,29,29.90,10.0,WSW,10.4,-,N/A,,Clear,240,2013-01-21 21:35:00
4:55 PM,58.5,27.1,30,29.89,10.0,SW,6.9,-,N/A,,Clear,230,2013-01-21 21:55:00
5:15 PM,56.8,28.0,33,29.89,10.0,SSW,8.1,-,N/A,,Clear,210,2013-01-21 22:15:00
5:35 PM,54.7,28.6,37,29.89,10.0,SSW,4.6,-,N/A,,Clear,210,2013-01-21 22:35:00
5:55 PM,54.0,28.4,37,29.89,10.0,SW,4.6,-,N/A,,Clear,220,2013-01-21 22:55:00
6:15 PM,51.1,29.3,43,29.89,10.0,SSW,3.5,-,N/A,,Clear,210,2013-01-21 23:15:00
6:35 PM,49.5,31.3,50,29.90,10.0,Calm,Calm,-,N/A,,Clear,0,2013-01-21 23:35:00
6:55 PM,47.7,31.6,54,29.90,10.0,Calm,Calm,-,N/A,,Clear,0,2013-01-21 23:55:00
7:15 PM,46.9,31.3,55,29.89,10.0,Calm,Calm,-,N/A,,Clear,0,2013-01-22 00:15:00
7:35 PM,44.8,32.0,61,29.91,10.0,Calm,Calm,-,N/A,,Clear,0,2013-01-22 00:35:00
7:55 PM,42.6,32.0,66,29.91,10.0,Calm,Calm,-,N/A,,Clear,0,2013-01-22 00:55:00
8:15 PM,47.8,31.8,54,29.93,10.0,West,4.6,-,N/A,,Clear,260,2013-01-22 01:15:00
8:35 PM,47.5,31.5,54,29.93,10.0,West,3.5,-,N/A,,Clear,270,2013-01-22 01:35:00
9:15 PM,48.9,23.5,37,29.95,10.0,WNW,3.5,-,N/A,,Clear,300,2013-01-22 02:15:00
9:35 PM,47.5,22.8,38,29.95,10.0,Calm,Calm,-,N/A,,Clear,0,2013-01-22 02:35:00
9:55 PM,47.3,20.3,34,29.96,10.0,West,6.9,-,N/A,,Clear,270,2013-01-22 02:55:00
10:15 PM,47.1,18.7,32,29.96,10.0,West,4.6,-,N/A,,Clear,270,2013-01-22 03:15:00
10:35 PM,46.4,18.1,32,29.96,10.0,West,4.6,-,N/A,,Clear,260,2013-01-22 03:35:00
10:55 PM,45.5,17.4,33,29.96,10.0,West,4.6,-,N/A,,Clear,270,2013-01-22 03:55:00
11:15 PM,43.5,18.3,36,29.96,10.0,SW,3.5,-,N/A,,Clear,230,2013-01-22 04:15:00
11:35 PM,42.4,18.9,39,29.97,10.0,Calm,Calm,-,N/A,,Clear,0,2013-01-22 04:35:00